TimeCDT,TemperatureF,Dew PointF,Humidity,Sea Level PressureIn,VisibilityMPH,Wind Direction,Wind SpeedMPH,Gust SpeedMPH,PrecipitationIn,Events,Conditions,WindDirDegrees,DateUTC
12:53 AM,48.9,33.1,54,30.02,10.0,South,5.8,-,N/A,,Clear,170,2012-10-30 05:53:00
1:53 AM,51.1,33.1,50,30.00,10.0,South,5.8,-,N/A,,Partly Cloudy,180,2012-10-30 06:53:00
2:53 AM,51.1,33.1,50,29.98,10.0,SSE,8.1,-,N/A,,Mostly Cloudy,160,2012-10-30 07:53:00
3:53 AM,51.1,34.0,52,29.96,10.0,South,4.6,-,N/A,,Overcast,170,2012-10-30 08:53:00
4:53 AM,51.1,34.0,52,29.95,10.0,ESE,3.5,-,N/A,,Mostly Cloudy,120,2012-10-30 09:53:00
5:53 AM,50.0,34.0,54,29.94,10.0,SSE,8.1,-,N/A,,Mostly Cloudy,150,2012-10-30 10:53:00
6:53 AM,50.0,34.0,54,29.94,10.0,SE,3.5,-,N/A,,Scattered Clouds,130,2012-10-30 11:53:00
7:53 AM,46.0,34.0,63,29.95,10.0,Calm,Calm,-,N/A,,Clear,0,2012-10-30 12:53:00
8:53 AM,48.9,36.0,61,29.95,10.0,SE,3.5,-,N/A,,Clear,140,2012-10-30 13:53:00
9:53 AM,54.0,36.0,51,29.95,10.0,Calm,Calm,-,N/A,,Clear,0,2012-10-30 14:53:00
10:53 AM,57.9,37.0,46,29.95,10.0,North,3.5,-,N/A,,Clear,350,2012-10-30 15:53:00
11:53 AM,61.0,37.0,41,29.95,10.0,NE,5.8,-,N/A,,Clear,40,2012-10-30 16:53:00
12:53 PM,64.9,37.9,37,29.95,10.0,NNE,6.9,-,N/A,,Clear,30,2012-10-30 17:53:00
1:53 PM,66.0,37.9,36,29.93,10.0,East,8.1,-,N/A,,Clear,80,2012-10-30 18:53:00
2:53 PM,68.0,37.0,32,29.93,10.0,NE,8.1,-,N/A,,Clear,50,2012-10-30 19:53:00
3:53 PM,68.0,37.9,33,29.93,10.0,Variable,4.6,-,N/A,,Clear,0,2012-10-30 20:53:00
4:53 PM,68.0,36.0,31,29.93,10.0,East,8.1,-,N/A,,Clear,90,2012-10-30 21:53:00
5:53 PM,66.0,36.0,33,29.94,10.0,ENE,9.2,-,N/A,,Clear,60,2012-10-30 22:53:00
6:53 PM,60.8,35.6,39,29.98,10.0,ENE,8.1,-,N/A,,Clear,60,2012-10-30 23:53:00
7:53 PM,57.0,34.0,42,30.01,10.0,NE,8.1,-,N/A,,Clear,40,2012-10-31 00:53:00
8:53 PM,55.9,33.1,42,30.01,10.0,ENE,5.8,-,N/A,,Clear,60,2012-10-31 01:53:00
9:53 PM,53.1,33.1,47,30.02,10.0,East,3.5,-,N/A,,Clear,90,2012-10-31 02:53:00
10:53 PM,48.0,33.1,56,30.04,10.0,Calm,Calm,-,N/A,,Clear,0,2012-10-31 03:53:00
11:53 PM,48.9,33.1,54,30.03,10.0,East,3.5,-,N/A,,Clear,90,2012-10-31 04:53:00